Regional Weather Roundup
Issued by NWS

Home | Current Version | Previous Version | Text Only | Print | Product List | Glossary On
Versions: 1 2 3 4 5 6 7 8 9 10 11 12 13 14 15 16 17 18 19 20 21 22 23 24 25 26 27 28 29 30 31 32 33 34 35 36 37 38 39 40 41 42 43 44 45 46 47 48 49 50
000
ASUS44 KBMX 260710
RWRAL

ALABAMA REGIONAL WEATHER ROUNDUP
NATIONAL WEATHER SERVICE BIRMINGHAM AL
200 AM CDT FRI MAY 26 2017

NOTE: "FAIR" INDICATES FEW OR NO CLOUDS BELOW 12,000 FEET
WITH NO SIGNIFICANT WEATHER AND/OR OBSTRUCTIONS TO VISIBILITY.

THE REMARK "TC" DENOTES TEMPERATURE IN DEGREES CELSIUS.

ALZ001>011-014-016>018-020-260800-
NORTH ALABAMA

CITY           SKY/WX    TMP DP  RH WIND       PRES   REMARKS
MUSCLE SHOALS  CLEAR     56  53  90 CALM      29.92R
HUNTSVILLE     CLEAR     57  55  93 E5        29.93R
DECATUR        CLEAR     55  54  96 SE3       29.93S
HALEYVILLE     FAIR      56  52  86 S3        29.95R
GADSDEN        PTCLDY    53  52  96 CALM      29.95F
$$

ALZ012-013-022-023-030>036-040>044-260800-
WEST CENTRAL ALABAMA

CITY           SKY/WX    TMP DP  RH WIND       PRES   REMARKS
TUSCALOOSA     CLEAR     58  57  97 CALM      29.93S
$$

ALZ015-024>027-033>036-040>044-260800-
CENTRAL ALABAMA

CITY           SKY/WX    TMP DP  RH WIND       PRES   REMARKS
BIRMINGHAM     CLEAR     57  55  93 CALM      29.96S
MONTGOMERY     CLEAR     59  53  80 CALM      29.95S
SHELBY CO ARPT CLEAR     57  56  96 CALM      29.95S
MAXWELL AFB    CLEAR     58  58  99 CALM      29.94S
GREENVILLE     FAIR      56  51  84 CALM      29.95S
$$

ALZ019-021-028-029-037-038-045>048-260800-
EAST CENTRAL ALABAMA

CITY           SKY/WX    TMP DP  RH WIND       PRES   REMARKS
ANNISTON       CLEAR     55  53  93 NE3       29.96R
ALEXANDER CITY CLEAR     53  51  94 CALM      29.96S
AUBURN         CLEAR     57  53  86 CALM      29.97S
$$

ALZ051>064-260800-
SOUTHWEST ALABAMA

CITY           SKY/WX    TMP DP  RH WIND       PRES   REMARKS
MOBILE         PTCLDY    67  61  81 S6        29.95S
BROOKLEY FIELD CLEAR     69  63  81 S3        29.96S
EVERGREEN      PTCLDY    56  54  93 CALM      29.96S
$$

ALZ049-050-065>069-260800-
SOUTHEAST ALABAMA

CITY           SKY/WX    TMP DP  RH WIND       PRES   REMARKS
DOTHAN         CLEAR     60  59  96 CALM      29.99F
OZARK          CLEAR     59  57  93 CALM      29.96S
TROY           PTCLDY    55  55 100 CALM      29.96S
EUFAULA        FAIR      54  51  90 CALM      29.95S
$$



USA.gov is the U.S. government's official web portal to all federal, state and local government web resources and services.